Home > Weather > Zaandam > Past weeks

Flag for Netherlands Weather for the Past 2 Weeks in Zaandam, Netherlands

Now
41 °F

Fog.


Feels Like: 41 °F
Forecast: 46 / 63 °F
Wind: 2 mph from North

Location: Amsterdam Schiphol Airport

Current Time: May 4, 2016 at 4:59:38 AM

Latest Report: May 4, 2016 at 4:25 AM


Visibility: N/A

Pressure: 30.36 "Hg

Humidity: 93%

Dew Point: 39 °F

Location of ZaandamLocation

Historic Weather in Zaandam — Graph

°F

Zaandam Temperature Yesterday

Maximum temperature yesterday: 54 °F (at 12:25 AM)
Minimum temperature yesterday: 45 °F (at 9:55 PM)
Average temperature yesterday: 50 °F

High & Low Weather Summary for the Past Weeks

 TemperatureHumidityPressure
High63 °F (May 2, 2:55 PM)100% (Apr 28, 5:25 AM)30.48 "Hg (Apr 28, 5:25 AM)
Low34 °F (Apr 25, 3:25 AM)34% (May 2, 2:55 PM)29.42 "Hg (Apr 26, 5:55 AM)
Average46 °F73%30.05 "Hg
* Reported Apr 19 3:25 AM — May 4 3:55 AM, Zaandam, Weather by CustomWeather, © 2016

Note: Actual official high and low records may vary slightly from our data, if they occured in-between our weather recording intervals... More about our weather records

Advertising

Zaandam Weather History for the Previous 24 Hours

Scroll right to see more
 ConditionsComfort  
Time TempWeatherWind HumidityBarometerVisibility
3:55 AM
Wed, May 4
41 °FFog.2 mph93%30.36 "HgN/A
3:25 AM41 °FClear.2 mph100%30.36 "Hg10 mi
2:55 AM43 °FClear.2 mph93%30.36 "Hg10 mi
2:25 AM43 °FClear.2 mph93%30.36 "Hg10 mi
1:55 AM43 °FClear.3 mph87%30.36 "Hg10 mi
1:25 AM43 °FClear.3 mph93%30.36 "Hg10 mi
12:55 AM45 °FClear.5 mph87%30.36 "Hg10 mi
12:25 AM43 °FClear.3 mph87%30.36 "Hg10 mi
11:55 PM
Tue, May 3
45 °FClear.2 mph87%30.36 "Hg10 mi
11:25 PM45 °FClear.5 mph81%30.36 "Hg10 mi
10:55 PM45 °FClear.2 mph81%30.36 "Hg10 mi
10:25 PM45 °FPassing clouds.5 mph81%30.33 "HgN/A
9:55 PM45 °FSunny.6 mph87%30.33 "Hg10 mi
9:25 PM46 °FPassing clouds.7 mph76%30.33 "HgN/A
8:55 PM48 °FSunny.7 mph76%30.33 "Hg10 mi
8:25 PM48 °FPassing clouds.7 mph71%30.30 "HgN/A
7:55 PM50 °FSunny.7 mph62%30.30 "Hg10 mi
7:25 PM52 °FPassing clouds.9 mph58%30.30 "HgN/A
6:55 PM52 °FPassing clouds.9 mph58%30.30 "HgN/A
6:25 PM52 °FPassing clouds.12 mph58%30.30 "HgN/A
5:55 PM52 °FPassing clouds.12 mph62%30.30 "HgN/A
5:25 PM54 °FPassing clouds.13 mph63%30.30 "HgN/A
4:55 PM54 °FPassing clouds.12 mph63%30.27 "HgN/A
4:25 PM52 °FPassing clouds.14 mph67%30.27 "HgN/A
3:55 PM54 °FPassing clouds.12 mph63%30.27 "HgN/A
3:25 PM54 °FPassing clouds.12 mph58%30.27 "HgN/A
2:55 PM52 °FPassing clouds.13 mph62%30.27 "HgN/A
2:25 PM54 °FPassing clouds.15 mph58%30.24 "HgN/A
1:25 PM54 °FPassing clouds.14 mph63%30.24 "HgN/A
12:55 PM54 °FPassing clouds.13 mph63%30.24 "HgN/A
12:25 PM54 °FPassing clouds.14 mph63%30.21 "HgN/A
11:55 AM52 °FPassing clouds.13 mph67%30.21 "HgN/A
11:25 AM54 °FPassing clouds.14 mph63%30.21 "HgN/A
10:55 AM52 °FPassing clouds.15 mph67%30.18 "HgN/A
10:25 AM52 °FPassing clouds.16 mph67%30.18 "HgN/A
9:55 AM52 °FPassing clouds.16 mph67%30.18 "HgN/A
9:25 AM50 °FPassing clouds.18 mph71%30.18 "HgN/A
8:55 AM50 °FPassing clouds.15 mph76%30.15 "HgN/A
8:25 AM48 °FPassing clouds.14 mph82%30.15 "HgN/A
7:55 AM48 °FPassing clouds.12 mph82%30.12 "HgN/A
7:25 AM46 °FPassing clouds.10 mph87%30.12 "HgN/A
6:55 AM46 °FPassing clouds.9 mph87%30.09 "HgN/A
6:25 AM46 °FPassing clouds.10 mph87%30.09 "HgN/A
5:55 AM46 °FPassing clouds.12 mph93%30.09 "HgN/A
5:25 AM48 °FPassing clouds.12 mph94%30.09 "HgN/A
4:55 AM48 °FPassing clouds.8 mph94%30.07 "HgN/A
4:25 AM46 °FPassing clouds.7 mph100%30.07 "HgN/A
Weather by CustomWeather, © 2016

See weather overviewHow to use our weather pages